Home   Weather   Pully   Past weeks

Flag for Switzerland Past Weather in Pully, Vaud, Switzerland — Yesterday and Last 2 Weeks

Now
27 °F

Fog.


Feels Like: 27 °F
Forecast: 38 / 54 °F
Wind: 1 mph from Northwest

Location: Aigle

Current Time: Dec 9, 2016 at 4:56:33 am

Latest Report: Dec 9, 2016 at 4:00 am


Visibility: 6 mi

Pressure: 30.64 "Hg

Humidity: 94%

Dew Point: 26 °F

Location of PullyLocation

Past Weather in Pully — Graph

°F

Pully Temperature Yesterday

Maximum temperature yesterday: 42 °F (at 2:00 pm)
Minimum temperature yesterday: 27 °F (at 8:00 am)
Average temperature yesterday: 32 °F

High & Low Weather Summary for the Past Weeks

 TemperatureHumidityPressure
High63 °F (Nov 24, 3:00 am)100% (Nov 27, 1:00 am)30.72 "Hg (Nov 27, 1:00 am)
Low26 °F (Dec 7, 5:00 am)38% (Nov 24, 3:00 am)29.82 "Hg (Nov 25, 4:00 am)
Average37 °F86%30.29 "Hg
* Reported Nov 24 3:00 am — Dec 9 3:00 am, Pully, Weather by CustomWeather, © 2016

Note: Actual official high and low records may vary slightly from our data, if they occured in-between our weather recording intervals... More about our weather records

Advertising

Pully Weather History for the Previous 24 Hours

Scroll right to see more
 ConditionsComfort  
Time TempWeatherWind HumidityBarometerVisibility
3:00 am
Fri, Dec 9
27 °FChilly.1 mph97%30.64 "HgN/A
2:00 am28 °FChilly.2 mph96%30.63 "HgN/A
1:00 am28 °FChilly.1 mph96%30.65 "HgN/A
12:00 am30 °FChilly.2 mph93%30.65 "HgN/A
11:00 pm
Thu, Dec 8
29 °FChilly.2 mph96%30.65 "HgN/A
10:00 pm31 °FChilly.5 mph91%30.65 "HgN/A
9:00 pm32 °FChilly.2 mph89%30.64 "HgN/A
8:00 pm31 °FChilly.1 mph95%30.65 "HgN/A
7:00 pm33 °FClear.3 mph91%30.63 "Hg19 mi
6:00 pm31 °FChilly.1 mph92%30.62 "HgN/A
5:00 pm33 °FChilly.2 mph93%30.62 "HgN/A
4:00 pm35 °FPassing clouds.2 mph86%30.61 "Hg16 mi
3:00 pm41 °FQuite cool.7 mph78%30.58 "HgN/A
2:00 pm42 °FQuite cool.3 mph64%30.59 "HgN/A
1:00 pm41 °FSunny.1 mph68%30.63 "Hg19 mi
12:00 pm40 °FChilly.3 mph76%30.66 "HgN/A
11:00 am36 °FChilly.3 mph76%30.68 "HgN/A
10:00 am31 °FChilly.1 mph85%30.71 "HgN/A
9:00 am28 °FChilly.3 mph88%30.72 "HgN/A
8:00 am27 °FChilly.No wind90%30.70 "HgN/A
7:00 am28 °FClear.3 mph89%30.70 "Hg14 mi
6:00 am28 °FChilly.1 mph91%30.70 "HgN/A
5:00 am27 °FChilly.2 mph93%30.68 "HgN/A
4:00 am28 °FFog.1 mph92%30.69 "Hg8 mi
Weather by CustomWeather, © 2016

See weather overviewHow to use our weather pages